User: anonymous   Login
Location: Skalnate Pleso
(49.1889°N, 20.2450°E)
Time: 11:23:31
(UTC+02:00)
Language:

Iridium 18 - Orbit

View from above orbital plane
View from above orbital plane
View from above satellite
View from above satellite

Ground track
Ground track

The orbit data is extracted from the following two-line orbital elements,

1 24872U 97034D   15087.22675883  .00000634  00000-0  21942-3 0  9992
2 24872 086.4014 001.4314 0002358 085.4007 274.7458 14.34214081927534
Epoch (UTC): 28 March 2015 05:26:31
Eccentricity: 0.0002358
inclination: 86.4014°
perigee height: 776 km
apogee height: 779 km
right ascension of ascending node: 1.4314°
argument of perigee: 85.4007°
revolutions per day: 14.34214081
mean anomaly at epoch: 274.7458°
orbit number at epoch: 92753

The dashed part of the orbit path shows where the satellite is in the earth's shadow,  

DLR